846  
ASUS46 KSEW 210310  
RWRWA  
 
WASHINGTON REGIONAL WEATHER ROUNDUP  
NATIONAL WEATHER SERVICE SEATTLE WA  
800 PM PDT WED SEP 20 2017  
 
NOTE:"FAIR" INDICATES FEW OR NO CLOUDS BELOW 12,000 FEET WITH NO  
SIGNIFICANT WEATHER AND/OR S TO VISIBILITY
.  
 
WAZ507-509-555>559-210400-  
SEATTLE, TACOMA, EVERETT, AND VICINITY  
 
CITY SKY/WX TMP DP RH WIND PRES REMARKS
 
EVERETT CLOUDY 53 49 86 S6 29.80R  
BOEING FIELD MOCLDY 54 48 80 S6 29.80R  
RENTON CLOUDY 54 51 90 CALM 29.80R  
SEATAC AIRPORT MOCLDY 54 46 74 S5 29.81R  
JBLM-MCCHORD CLOUDY 53 51 94 CALM 29.81R  
PUYALLUP CLOUDY 52 52 100 CALM 29.81R  
BREMERTON MOCLDY 51 49 92 S3 29.80R  
JBLM-FT LEWIS NOT AVBL  
TACOMA NARROWS MOCLDY 53 46 77 S3 29.80S  

 
 
WAZ001-503-506-510-514-515-210400-  
NORTH INTERIOR  
 
CITY SKY/WX TMP DP RH WIND PRES REMARKS
 
BELLINGHAM MOCLDY 51 48 89 CALM 29.77R  
FRIDAY HARBOR MOCLDY 47 46 97 CALM 29.78S  
EASTSOUND MOCLDY 54 48 82 S7 29.77R  
PORT ANGELES PTCLDY 49 43 80 CALM 29.79R  
EDIZ HOOK FAIR 52 44 74 W6 29.79R  
PORT TOWNSEND FAIR 48 45 87 CALM 29.79S  
NAS WHIDBEY MOCLDY 51 43 74 CALM 29.83R  
ARLINGTON PTCLDY 54 45 71 S5 29.80R  
BURLINGTON CLEAR 52 48 87 CALM 29.79R  

 
 
WAZ020-022-039-040-504-511-512-210400-  
SOUTHWEST INTERIOR  
 
CITY SKY/WX TMP DP RH WIND PRES REMARKS
 
SHELTON CLOUDY 54 51 90 CALM 29.78R  
OLYMPIA MOCLDY 54 49 83 W5 29.81R  
CHEHALIS DRIZZLE 52 52 100 SW5 29.82S  
KELSO MOCLDY 56 48 74 W3 29.83R  
VANCOUVER PTCLDY 52 51 97 SE3 29.83R  
SCAPPOOSE, OR CLOUDY 52 50 93 SW5 29.82R  
PORTLAND, OR PTCLDY 51 49 92 S6 29.84R  

 
 
WAZ021-516-517-210400-  
WASHINGTON COAST  
 
CITY SKY/WX TMP DP RH WIND PRES REMARKS
 
FORKS CLEAR 50 46 86 CALM 29.80R  
HOQUIAM CLEAR 54 49 83 CALM 29.82R  
ASTORIA, OR PTCLDY 52 47 83 SW3 29.83R  

 
 
WAZ019-023-024-040-567>569-210400-  
CASCADE MOUNTAINS AND COLUMBIA GORGE  
 
CITY SKY/WX TMP DP RH WIND PRES REMARKS
 
STAMPEDE PASS FOG 38 38 100 VRB3 29.77R VSB 1/2  
TROUTDALE, OR CLOUDY 52 49 89 CALM 29.83R  
HOOD RIVER, OR NOT AVBL  
THE DALLES, OR PTCLDY 52 43 71 NW10 29.77S  

 
 
WAZ026-027-041>044-520-521-210400-  
EAST SLOPES  
 
CITY SKY/WX TMP DP RH WIND PRES REMARKS
 
OMAK LGT RAIN 50 47 89 S6 29.69R  
WENATCHEE PTCLDY 54 39 57 CALM 29.69R  
ELLENSBURG PTCLDY 50 37 61 NW16 29.72R  
YAKIMA CLEAR 48 42 80 W3 29.73R  
SUNNYSIDE ARPT CLEAR 44 41 89 CALM 29.72R  
YAKIMA TC MOCLDY 53 35 51 N10 29.71R  

 
 
WAZ028-034-035-210400-  
COLUMBIA BASIN  
 
CITY SKY/WX TMP DP RH WIND PRES REMARKS
 
EPHRATA PTCLDY 49 39 68 S3 29.70R  
MOSES LAKE PTCLDY 47 40 76 SE7 29.70S  
PASCO PTCLDY 54 44 69 SW8 29.73R  
RICHLAND ARPT CLEAR 52 45 76 CALM 29.73R  
HERMISTON, OR PTCLDY 51 43 74 SW8 29.74R  

 
 
WAZ036>038-210400-  
NORTHEAST WASHINGTON  
 
CITY SKY/WX TMP DP RH WIND PRES REMARKS
 
SPOKANE GEIGER MOCLDY 44 42 93 SW3 29.72R  
SPOKANE FELTS CLOUDY 45 44 97 CALM 29.73R  
FAIRCHILD AFB MOCLDY 42 42 100 S3 29.71R  
COEURDALENE,ID CLOUDY 44 40 85 S7 29.72R  
DEER PARK MOCLDY 40 39 97 SE3 29.72R  

 
 
WAZ029>033-210400-  
SOUTHEAST WASHINGTON  
 
CITY SKY/WX TMP DP RH WIND PRES REMARKS
 
PULLMAN CLOUDY 46 42 86 S5 29.74R  
LEWISTON, ID PTCLDY 50 42 74 S7 29.74R  
WALLA WALLA CLOUDY 54 45 71 S10 29.75R  
PENDLETON, OR MOCLDY 51 42 71 SW6 29.75R  

 
 
 
CLICK HERE TO GO TO PREVIOUS BULLETINS.

The Nexlab WA Page Main Text Page